Location: Pic du Midi - T1M
(42.9366°N, 0.1426°E)
Time: 10:41:05
(UTC+01:00)

DUCHIFAT 1 - Pass Details

Date: 23 September 2021
Orbit: 583 x 603 km, 98.0° (Epoch: 18 October)

Event Time Altitude Azimuth Distance (km) Brightness Sun altitude
Rises 03:34:26 0° 5° (N) 2,834 ? -33.8°
Reaches altitude 10° 03:36:42 10° 358° (N) 1,925 ? -33.5°
Enters shadow 03:36:44 10° 358° (N) 1,912 ? -33.5°
